Location: Niagara
(43.2500°N, 79.0670°W)
Time: 01:40:01
(UTC-05:00)

Vanguard 1 - Visible Passes

Search period start: 23 February 2018 00:00
Search period end: 05 March 2018 00:00
Orbit: 650 x 3833 km, 34.2° (Epoch: 22 February)

Date Brightness Start Highest point End Pass type
(mag) Time Alt. Az. Time Alt. Az. Time Alt. Az.
23 Feb 11.9 19:52:45 10° WSW 19:55:04 12° SW 19:57:07 10° SSW visible
26 Feb 12.0 18:32:01 10° W 18:37:57 22° SW 18:42:12 10° SSE visible
27 Feb 12.2 18:54:02 10° WSW 18:58:20 16° SW 19:01:44 10° S visible
28 Feb 12.6 19:17:49 10° SW 19:18:38 10° SW 19:19:24 10° SW visible
